This is the latest recevied weather packets stored in our database for station/object IU1OLT-5. If no packets are shown the sender has not sent any weather packets the latest 10 day(s).
| Time | Temp. | Humidity | Pressure | Rain* | Wind** | Luminosity | Snow |
|---|---|---|---|---|---|---|---|
| 1777655474 | 21.11° C | 31% | 1023.2 hPa | 0 mm | - | 59 W/m² | - |
| 1777654574 | 21.67° C | 32% | 1023.2 hPa | 0 mm | - | 79 W/m² | - |
| 1777653674 | 22.22° C | 32% | 1023.1 hPa | 0 mm | - | 105 W/m² | - |
| 1777652773 | 21.67° C | 39% | 1023.3 hPa | 0 mm | - | 133 W/m² | - |
| 1777651873 | 20° C | 41% | 1023.3 hPa | 0 mm | - | 168 W/m² | - |
| 1777650973 | 20° C | 41% | 1023.2 hPa | 0 mm | - | 202 W/m² | - |
| 1777650073 | 20.56° C | 42% | 1023.1 hPa | 0 mm | - | 240 W/m² | - |
| 1777649173 | 20.56° C | 43% | 1023.2 hPa | 0 mm | - | 283 W/m² | - |
| 1777648272 | 20.56° C | 43% | 1023.4 hPa | 0 mm | - | 321 W/m² | - |
| 1777647372 | 21.11° C | 44% | 1023.2 hPa | 0 mm | - | 362 W/m² | - |
| 1777646472 | 19.44° C | 46% | 1023.2 hPa | 0 mm | - | 403 W/m² | - |
| 1777645572 | 20.56° C | 43% | 1023.2 hPa | 0 mm | - | 442 W/m² | - |
| 1777644672 | 20° C | 42% | 1023.6 hPa | 0 mm | - | 481 W/m² | - |
| 1777643771 | 20.56° C | 45% | 1023.7 hPa | 0 mm | - | 517 W/m² | - |
| 1777642871 | 21.11° C | 45% | 1023.8 hPa | 0 mm | - | 548 W/m² | - |
| 1777641971 | 20.56° C | 40% | 1024 hPa | 0 mm | - | 582 W/m² | - |
| 1777641070 | 20° C | 41% | 1024.2 hPa | 0 mm | - | 613 W/m² | - |
| 1777640170 | 20° C | 44% | 1024.3 hPa | 0 mm | - | 635 W/m² | - |
| 1777639270 | 18.89° C | 47% | 1024.5 hPa | 0 mm | - | 664 W/m² | - |
| 1777638370 | 18.33° C | 48% | 1024.4 hPa | 0 mm | - | 686 W/m² | - |
| 1777637470 | 18.89° C | 45% | 1024.5 hPa | 0 mm | - | 702 W/m² | - |
| 1777636570 | 18.33° C | 46% | 1024.6 hPa | 0 mm | - | 716 W/m² | - |
| 1777635669 | 18.33° C | 47% | 1024.8 hPa | 0 mm | - | 724 W/m² | - |
| 1777634769 | 18.33° C | 49% | 1024.7 hPa | 0 mm | - | 731 W/m² | - |
| 1777633869 | 18.33° C | 47% | 1024.8 hPa | 0 mm | - | 733 W/m² | - |
* Rain latest hour (hover to see other rain measurements)
** Current wind speed in m/s (hover to see current wind gust speed)